Location: Rockford
(42.2710°N, 89.0940°W)
Time: 00:19:58
(UTC-05:00)

Daily predictions for brighter satellites

Satellite Brightness Start Highest point End
(mag) Time Altitude Azimuth Time Altitude Azimuth Time Altitude Azimuth
Cosmos 2322 Rocket 4.5 02:14:58 19° NE 02:14:58 19° NE 02:16:37 10° NE
SL-16 R/B 4.3 02:22:22 22° NE 02:22:22 22° NE 02:24:21 10° NE
SL-16 R/B 4.1 02:21:35 31° NE 02:21:35 31° NE 02:26:02 10° N
Cosmos 2360 Rocket 4.2 02:42:22 23° ENE 02:42:22 23° ENE 02:44:58 10° NE
Cosmos 1980 Rocket 4.2 02:43:56 22° N 02:43:56 22° N 02:46:10 10° N
ADEOS Rocket 4.4 02:52:01 10° NNE 02:55:33 28° ENE 02:55:33 28° ENE
CENTAUR R/B 3.6 03:10:12 38° NNW 03:10:12 38° NNW 03:15:35 10° NNE
Cosmos 2322 4.5 03:26:35 49° ENE 03:26:35 49° ENE 03:30:56 10° NNE
Resurs 1-4 Rocket 3.0 03:31:31 10° NNE 03:35:03 44° NNE 03:35:03 44° NNE
CZ-2D R/B 2.8 03:44:14 10° N 03:48:20 50° N 03:48:20 50° N
ADEOS II 4.2 03:50:55 10° NE 03:54:54 21° E 03:58:52 10° SE
Cosmos 2322 Rocket 3.6 03:56:46 26° NNW 03:56:46 26° NNW 04:00:18 10° N
Meteor 1-18 Rocket 4.2 03:57:27 77° NE 03:57:27 77° NE 04:02:43 10° NNE
SL-16 R/B 3.7 04:04:14 25° NW 04:04:14 25° NW 04:07:58 10° N
Cosmos 2219 Rocket 3.3 04:02:20 31° SE 04:03:57 38° ESE 04:09:04 10° NE
SL-16 R/B 3.6 04:06:39 30° NW 04:06:39 30° NW 04:10:01 10° NNW
Cosmos 2074 Rocket 3.8 03:59:14 10° N 04:05:30 82° W 04:05:53 77° SW
Cosmos 1844 Rocket 3.0 04:02:38 10° NNW 04:08:12 64° ENE 04:13:42 10° SE
ARIANE 5 R/B 3.5 04:05:56 10° N 04:09:28 37° NNW 04:09:28 37° NNW
Cosmos 2237 4.0 04:13:34 79° W 04:13:45 80° WNW 04:19:32 10° NNE
CZ-4B R/B 4.4 04:12:44 10° NE 04:15:55 28° E 04:16:29 26° ESE
Cosmos 1455 Rocket 4.5 04:13:14 10° NNW 04:15:29 29° NNW 04:15:29 29° NNW
COSMOS 2428 2.6 04:17:41 71° SSW 04:18:20 88° ESE 04:24:03 10° NNE
Meteor 1-12 Rocket 4.1 04:12:41 10° NNW 04:18:22 75° W 04:18:41 73° SW
Okean O Rocket 2.8 04:16:52 10° NNE 04:21:04 39° E 04:22:51 27° SE
Cosmos 1570 Rocket 3.8 04:23:36 77° W 04:23:48 79° WNW 04:29:03 10° NNE
Cosmos 2360 Rocket 2.8 04:24:09 40° NW 04:24:09 40° NW 04:29:15 10° N
CZ-2D R/B 4.2 04:19:40 10° N 04:23:02 47° NNW 04:23:02 47° NNW
Cosmos 1340 4.3 04:28:09 27° N 04:28:09 27° N 04:30:04 10° N
Cosmos 2278 Rocket 3.4 04:26:11 10° NNW 04:31:35 43° ENE 04:36:57 10° SE
ATLAS 5 CENTAUR R/B 2.9 04:25:52 10° NNW 04:31:45 59° NE 04:38:10 10° SE
Gblst 52 Del rocket 4.4 04:35:12 51° SW 04:35:12 51° SW 04:41:02 10° SSE
Cosmos 2237 Rocket 3.3 04:32:19 16° S 04:36:23 41° ESE 04:41:41 10° NE
PSLV R/B 3.8 04:32:46 10° NNE 04:36:33 70° ESE 04:36:42 68° ESE
Cosmos 1666 3.4 04:37:58 10° N 04:41:47 53° E 04:45:35 10° SSE
SL-8 R/B 3.9 04:40:14 38° NW 04:42:00 69° NNE 04:46:46 10° ESE
ADEOS Rocket 3.5 04:37:36 10° N 04:42:28 33° WNW 04:42:30 33° WNW
Cosmos 1937 Rocket 4.4 04:38:35 10° N 04:43:46 50° ENE 04:48:54 10° SE
Cosmos 2184 Rocket 4.3 04:39:40 10° NNW 04:45:27 41° W 04:46:01 40° WSW
Cosmos 1536 Rocket 3.9 04:45:55 48° WNW 04:45:55 48° WNW 04:49:58 10° N
Cosmos 2285 Rocket 4.3 04:45:57 17° S 04:50:59 70° ESE 04:57:24 10° NNE
MOS 1-B 4.4 04:46:10 10° N 04:51:54 59° WNW 04:54:09 36° SW
PSLV R/B 4.0 04:48:01 10° NNE 04:52:20 60° E 04:55:36 17° S
Cosmos 405 Rocket 4.2 04:49:03 10° SSE 04:52:48 37° E 04:56:30 10° NNE
Meteor 2-4 Rocket 3.9 04:49:04 11° S 04:54:24 69° E 04:59:48 10° NNE
Meteor 1-19 Rocket 4.1 04:52:20 23° SSW 04:55:58 83° W 05:01:46 10° N
CZ-2C R/B 4.0 04:51:38 10° SSE 04:56:09 69° ENE 05:00:37 10° N
Cosmos 1743 2.8 04:53:09 10° NNW 04:56:40 54° WNW 04:56:40 54° WNW
Cosmos 962 Rocket 4.4 04:52:10 10° N 04:58:28 83° W 05:04:49 10° S
GPS 2-04 Rocket1 4.0 05:02:49 25° S 05:03:21 26° S 05:06:41 10° ESE
Cosmos 2333 Rocket 2.2 05:01:47 25° SSW 05:05:18 86° WNW 05:11:05 10° NNE
CZ-4C R/B 4.5 04:59:09 10° NNW 05:05:24 34° NE 05:12:15 10° ESE
IRS-1C Rocket 4.0 05:00:09 10° NNE 05:05:26 87° WNW 05:09:54 15° SSW
MTI 3.7 05:05:24 17° S 05:07:51 81° WSW 05:11:10 10° NNW
USA 215 3.3 05:01:44 10° SE 05:08:17 83° NE 05:14:52 10° NW
Cosmos 1814 Rocket 4.1 05:04:23 15° S 05:08:38 76° ESE 05:13:47 10° NNE
PAYLOAD B 4.2 05:05:16 10° NNE 05:10:53 78° WNW 05:15:58 13° SSW
Cosmos 1606 Rocket 4.1 05:10:36 10° N 05:15:03 62° E 05:19:29 10° SSE
Resurs 1-4 Rocket 4.0 05:13:37 10° NNW 05:15:52 13° WNW 05:16:09 13° WNW
Aureole 2 Rocket 2.2 05:14:51 32° SSW 05:16:21 84° WNW 05:19:37 10° NNE
OTV 4 2.3 05:16:08 18° SSE 05:16:21 18° SSE 05:18:20 10° ESE
Cosmos 2298 Rocket 3.9 05:12:50 10° NNW 05:18:09 68° WSW 05:23:25 10° S
DELTA 2 R/B (1) 3.6 05:15:28 27° W 05:18:27 67° S 05:23:58 10° ESE
Okean 1-7 Rocket 3.6 05:15:40 18° SSW 05:18:58 64° W 05:23:25 10° N
Cosmos 2154 Rocket 4.3 05:14:10 10° NNW 05:19:56 41° W 05:25:40 10° SSW
Meteor 1-31 Rocket 3.8 05:16:54 10° NNE 05:20:35 46° E 05:24:16 10° S
USA 229 DEB 3.8 05:17:12 23° SW 05:21:39 63° NW 05:28:35 10° NNE
USA 229 3.8 05:17:17 23° SW 05:21:45 63° NW 05:28:41 10° NNE
MOS 1 Rocket 4.2 05:18:39 10° N 05:22:35 28° WNW 05:23:48 25° W
EO 1 Del DPAF 3.4 05:19:32 10° S 05:23:16 48° W 05:27:02 10° NNW
ERS-2 2.9 05:19:48 10° NNE 05:23:27 54° ESE 05:27:04 10° S
Cosmos 1238 Rocket 3.7 05:24:35 21° NW 05:24:35 21° NW 05:26:25 10° NNW
Iridium 2 3.8 05:20:27 10° N 05:24:18 78° E 05:28:08 10° S
Cosmos 1844 4.1 05:21:04 10° NW 05:26:23 40° WSW 05:31:36 10° S
Cosmos 2228 4.5 05:23:44 10° N 05:27:51 41° ENE 05:31:59 10° SSE
CZ-2D R/B 4.2 05:27:33 10° NW 05:28:45 11° NW 05:29:40 10° WNW
Hubble Space Telescope 3.1 05:31:37 10° SSW 05:33:02 11° S 05:34:27 10° SSE
SL-8 Rocket 3.9 05:27:33 10° NNW 05:33:45 72° W 05:39:51 10° S
NOSS 3-1 (A) 4.0 05:28:18 10° SSW 05:33:54 56° ESE 05:40:11 10° NE
CZ-4B R/B 3.4 05:28:48 10° N 05:34:17 54° WNW 05:39:39 10° SW
NOSS 3-1 (C) 3.5 05:29:00 10° SSW 05:34:44 77° ESE 05:41:11 10° NE
ADEOS II 2.3 05:29:49 10° N 05:34:53 49° WNW 05:39:54 10° SW
SL-16 R/B 3.0 05:29:39 10° S 05:35:08 54° ESE 05:40:40 10° NNE
Okean 2 3.4 05:34:25 10° SSW 05:38:33 67° W 05:42:44 10° N
Cosmos 1025 Rocket 3.3 05:34:23 10° SSW 05:38:37 49° WNW 05:42:54 10° N
CZ-4B DEB 4.5 05:34:05 10° N 05:39:25 49° WNW 05:44:44 10° SW
Cosmos 2181 Rocket 4.3 05:38:10 10° SSW 05:44:06 46° WNW 05:50:11 10° N
Cosmos 1980 3.9 05:39:14 12° SW 05:44:15 53° WNW 05:49:47 10° NNE
Cosmos 990 Rocket 4.0 05:39:24 10° NNW 05:44:29 58° WSW 05:49:31 10° S
Cosmos 864 Rocket 4.5 05:39:22 10° N 05:45:36 84° W 05:51:51 10° S
Cosmos 2219 Rocket 3.0 05:44:06 15° WSW 05:47:56 32° NW 05:52:57 10° N
Cosmos 1809 Rocket 4.5 05:42:11 10° N 05:48:24 88° W 05:54:33 10° S
Cosmos 1726 Rocket 3.5 05:44:23 10° NNW 05:48:49 68° W 05:53:14 10° S
NOSS 0 Rocket 4.2 05:43:32 12° SW 05:49:07 49° WNW 05:55:05 10° NNE
Cosmos 371 Rocket 3.3 05:44:57 10° SSW 05:49:49 83° WNW 05:54:43 10° NNE
COSMO-SKYMED 1 3.6 05:46:30 10° SSE 05:50:42 51° ENE 05:54:56 10° N
CZ-4B R/B 4.2 05:48:19 10° NNW 05:50:57 19° WNW 05:52:40 14° WSW
Cosmos 1844 Rocket 3.9 05:47:52 10° WNW 05:51:30 18° W 05:55:07 10° SW
Cosmos 1437 3.4 05:48:39 10° SW 05:51:39 36° WNW 05:54:43 10° N
Cosmos 1867 4.2 05:47:29 10° NW 05:52:17 32° WSW 05:57:04 10° S
CZ-4B R/B 4.1 05:48:46 10° N 05:53:17 75° WNW 05:57:43 10° SSW
USA 116 4.2 05:49:35 10° S 05:53:57 58° W 05:58:51 10° NNW
BREEZE-M DEB (TANK) 4.1 05:50:11 14° WSW 05:54:00 76° NNW 06:14:48 10° ENE
Cosmos 332 Rocket 3.9 05:50:15 10° SW 05:55:04 57° WNW 05:59:54 10° NNE
Okean O Rocket 3.0 05:53:50 10° NNW 05:57:10 21° WNW 06:00:19 11° WSW
Meteor 1-28 Rocket 4.4 05:55:49 10° SSE 05:59:29 47° ENE 06:03:10 10° N
Cosmos 1898 Rocket 4.5 05:56:59 10° NW 06:01:03 24° W 06:05:06 10° SSW
Cosmos 1892 Rocket 3.7 05:57:44 10° SSW 06:01:59 54° W 06:06:19 10° N
COSMOS 2428 4.4 05:59:49 10° W 06:03:24 17° NW 06:06:59 10° N
Radarsat Rocket 4.4 05:59:23 10° NNE 06:05:16 67° ESE 06:11:04 10° S
Thor Agena Rocket 3.5 06:01:13 10° S 06:06:14 70° WSW 06:11:17 10° NNW
Cosmos 2218 Rocket 4.3 06:00:46 10° NNW 06:06:51 48° W 06:12:50 10° SSW
BREEZE M DEB (TANK) 3.1 05:59:50 10° WNW 06:08:50 58° SW 06:11:59 10° SE
Cosmos 1125 Rocket 3.7 06:04:35 10° NNW 06:09:54 81° ENE 06:15:12 10° SSE
EXPRESS MD2 2.9 06:10:27 10° WSW 06:15:06 80° NNW 06:17:44 10° ENE
Cosmos 2278 Rocket 3.0 06:10:41 10° NW 06:15:26 28° WSW 06:20:10 10° SSW
ATLAS 5 CENTAUR R/B 3.3 06:11:08 10° WNW 06:16:16 28° WSW 06:21:40 10° S
Okean-O 3.0 06:12:36 10° N 06:16:49 43° WNW 06:21:00 10° SW
Cosmos 1763 Rocket 4.1 06:12:25 10° SW 06:17:07 37° WNW 06:21:54 10° N
Cosmos 1515 4.2 06:13:53 10° SSW 06:17:32 41° WNW 06:21:13 10° N
Cosmos 1441 Rocket 3.7 06:14:43 10° SSW 06:18:29 42° WNW 06:22:19 10° N
Cosmos 2237 Rocket 3.1 06:15:32 10° WSW 06:20:32 31° NW 06:25:35 10° N
Cosmos 1626 Rocket 3.7 06:16:52 10° S 06:21:19 85° E 06:25:48 10° N
